Regional Weather Roundup
Issued by NWS Upton, NY

Current Version | Previous Version | Text Only | Print | Product List | Glossary On
Versions: 1 2 3 4 5 6 7 8 9 10 11 12 13 14 15 16 17 18 19 20 21 22 23 24 25 26 27 28 29 30 31 32 33 34 35 36 37 38 39 40 41 42 43 44 45 46 47
000
ASUS41 KOKX 031908
RWROKX

REGIONAL WEATHER ROUNDUP
NATIONAL WEATHER SERVICE NEW YORK NY
300 PM EDT SUN MAY 03 2015

NOTE: "FAIR" INDICATES FEW OR NO CLOUDS BELOW 12,000 FEET WITH NO
SIGNIFICANT WEATHER AND/OR OBSTRUCTIONS TO VISIBILITY.

NYZ071-072-176-178-NJZ106-104-032000-
NEW YORK CITY METRO AREA


CITY           SKY/WX    TMP DP  RH WIND       PRES   REMARKS
CENTRAL PARK   SUNNY     78  39  24 VRB6      30.09S
LAGUARDIA APRT MOSUNNY   74  37  26 S15       30.06F
KENNEDY INTL   MOSUNNY   65  45  48 S10       30.10F
NEWARK/LIBERTY MOSUNNY   78  37  22 SE8       30.06F
BRNX BOT. GARD   N/A     73  41  31 S17       30.09R
TETERBORO      MOSUNNY   77  37  23 S13       30.04F
$$

NYZ177-179-078>081-032000-
LONG ISLAND NEW YORK

CITY           SKY/WX    TMP DP  RH WIND       PRES   REMARKS
FARMINGDALE    SUNNY     64  47  53 SW13      30.10F
ISLIP          PTSUNNY   64  45  49 S10       30.09S
SHIRLEY        SUNNY     63  45  51 S13       30.11F
WESTHAMPTON    SUNNY     59  43  55 SW12      30.12S
MONTAUK POINT    N/A     56  43  61 S8        30.12S
$$

NYZ052-065-067-032000-
HUDSON VALLEY

CITY           SKY/WX    TMP DP  RH WIND       PRES   REMARKS
WHITE PLAINS   MOSUNNY   77  37  23 W8        30.05F
NEWBURGH       NOT AVBL
MONTGOMERY     CLOUDY    76  37  24 W5        30.03F
POUGHKEEPSIE   PTSUNNY   77  36  22 CALM      30.03F
ALBANY         PTSUNNY   79  37  22 VRB6      30.02F
$$

NJZ001-105-106-008-010-013-015-019>022-104-032000-
NEW JERSEY

CITY           SKY/WX    TMP DP  RH WIND       PRES   REMARKS
NEWARK/LIBERTY MOSUNNY   78  37  22 SE8       30.06F
TETERBORO      MOSUNNY   77  37  23 S13       30.04F
CALDWELL       PTSUNNY   77  36  22 S3        30.06S
MORRISTOWN     MOSUNNY   79  36  21 NW3G18    30.06F
SOMERVILLE     SUNNY     78  34  20 CALM      30.04F
SUSSEX         MOSUNNY   76  34  21 VRB3      30.06F
ANDOVER          N/A     76  35  22 CALM      30.06F
TRENTON        MOSUNNY   78  38  23 VRB7      30.07F
MILLVILLE      MOSUNNY   77  49  37 W9        30.09S
ATLANTIC CITY  SUNNY     72  47  40 S9        30.10S
WRIGHTSTOWN    SUNNY     77  40  26 VRB1      30.06F
TOMS RIVER     SUNNY     73  39  29 SE9G17    30.09S
BELMAR         SUNNY     72  43  35 E12       30.09S
$$

PAZ047>061-062-071-032000-
EASTERN PENNSYLVANIA

CITY           SKY/WX    TMP DP  RH WIND       PRES   REMARKS
PHILADELPHIA   MOSUNNY   79  37  22 S7        30.08F
ALLENTOWN      MOSUNNY   80  40  23 SW12      30.06F
SCRANTON       MOSUNNY   77  34  21 CALM      30.07F
$$

CTZ002-004>006-009-010-012-RIZ004-006-007-MAZ004-011-015-032000-
SOUTHERN NEW ENGLAND
 IN CT

CITY           SKY/WX    TMP DP  RH WIND       PRES   REMARKS
BRADLEY INTL   PTSUNNY   75  39  27 S5        30.03S
HARTFORD       MOSUNNY   76  37  24 VRB5      30.02F
DANBURY        MOSUNNY   76  37  24 VRB3      30.06F
WTRBRY/OXFORD  PTSUNNY   72  43  35 S12G21    30.06F
BRIDGEPORT     SUNNY     72  46  39 S13       30.07S
MERIDEN        MOSUNNY   74  40  29 SW10      30.05S
NEW HAVEN      MOSUNNY   66  43  43 S7        30.07F
CHESTER        FAIR      70  39  32 SW14      30.07F
GROTON         SUNNY     55  44  66 S14       30.09S
WILLIMANTIC    PTSUNNY   76  32  20 VRB3      30.03S

 IN RI

CITY           SKY/WX    TMP DP  RH WIND       PRES   REMARKS
PROVIDENCE     MOSUNNY   57  44  62 SE16G26   30.09R
BLOCK ISLAND   SUNNY     52  43  71 S21       30.12S
WESTERLY       SUNNY     55  44  66 S12       30.11S

 IN MA

CITY           SKY/WX    TMP DP  RH WIND       PRES   REMARKS
BOSTON         MOSUNNY   59  48  67 NE9       30.06F
WORCESTER      CLOUDY    71  31  22 SE5       30.05S
WESTFIELD      CLOUDY    75  36  24 SE3       30.03S
PROVINCETOWN   SUNNY     57  43  58 S20       30.10S
NANTUCKET      SUNNY     51  40  65 S12       30.15R
$$

ANZ330-335-338-340-345-350-353-355-032000-
COASTAL MARINE OBSERVATIONS


STATION/POSITION TIME  SKY/WX   TEMP    WIND        PRES    VSBY  WAVE
                                AIR SEA DIR/SP/G                  HT/PER
                 (UTC)          (F)     (DEG/KT/KT) (MB)    (MI)  (FT/S)
NY HARB ENTRANCE 1850            53 52  180/ 10/ 12 1019.0          4/ 9
4S FIRE IS       1803               49                N/A           4/ 8
20S FIRE ISLAND  1850            49 48  190/ 10/ 12 1020.0          4/ 9
GREAT SOUTH BAY  1800            52 58  230/ 10/ 12   N/A
23SW MTP         1850            47 45  200/ 12/ 14 1020.1          4/ 8
HUDSON CANYON    NOT AVBL
EXECUTION ROCKS  NOT AVBL
WESTERN LI SOUND NOT AVBL
CENTRAL LI SOUND NOT AVBL
EASTERN LI SOUND 1800            50     150/  6/ 10   N/A
ROBBINS REEF     1800            60     160/ 17/ 18 1017.5
$$


>>>>>>>>>>>>>>>>>>>>>>>>>>>> KEY <<<<<<<<<<<<<<<<<<<<<<<<<<<
>                                                          <
>     SKY/WX - SKY CONDITION/PRESENT WEATHER               <
>     TMP    - TEMPERATURE IN FAHRENHEIT                   <
>     DP     - DEWPOINT IN FAHRENHEIT                      <
>     RH     - RELATIVE HUMIDITY IN PERCENT                <
>     WIND   - DIRECTION AND SPEED IN MPH                  <
>     PRES   - MEAN SEA LEVEL PRESSURE IN INCHES OF HG     <
>     WCI    - WIND CHILL INDEX                            <
>     VSB    - VISIBILITY IN MILES                         <
>     HX     - HEAT INDEX                                  <
>     TC     - TEMPERATURE IN CELSIUS                      <
>     VRB    - VARIABLE WIND DIRECTION                     <
>                                                          <
>>>>>>>>>>>>>>>>>>>>>>>>>>>> KEY <<<<<<<<<<<<<<<<<<<<<<<<<<<





USA.gov is the U.S. government's official web portal to all federal, state and local government web resources and services.